Dewpoint
17 16 16 15 15 14 13 14 15 15 15 16 17 18 20 21 22 23 26 26 26 24 24 25 26 27 29 32 34 35 35 36 37 38 38 39 39 40 41 41 42 43 44 44 45 46 46 47 47 47 48 48 49 50 51 52 53 54 55 56 56 56 56 56 56 56 57 57 59 61 62 64 66 66 67 67 67 67 67 67 67 66 66 66 66 66
15 14 15 14 14 13 13 14 14 15 15 16 17 18 20 20 21 22 25 26 26 25 23 24 25 26 27 30 33 35 35 35 36 37 38 39 39 40 41 41 42 43 43 44 44 45 46 46 46 47 47 48 48 49 50 51 52 53 54 55 56 56 56 55 55 55 56 57 58 59 62 63 65 66 66 66 67 67 67 67 66 66 66 66 66 66
13 13 13 14 13 13 13 13 14 15 16 17 17 19 19 20 21 23 25 25 25 24 24 24 24 26 27 30 32 34 35 35 36 37 38 39 39 40 40 41 42 42 43 44 44 45 45 46 46 46 47 48 48 49 50 51 52 53 54 55 55 55 55 55 55 55 55 56 57 58 60 62 64 66 66 66 66 66 66 66 66 66 66 66 66 66
14 13 13 14 14 13 13 13 14 15 16 17 19 19 20 21 22 24 25 25 25 25 24 24 24 25 26 28 30 33 34 35 36 37 38 38 39 39 40 41 41 42 43 43 44 44 45 45 46 46 47 48 48 49 50 51 52 53 53 54 55 55 55 54 54 54 55 55 56 57 58 61 63 64 65 65 65 65 65 65 65 65 66 66 66 66
16 15 15 14 14 13 13 13 14 15 17 18 18 19 19 21 22 23 25 26 26 25 24 24 24 24 25 26 29 32 34 35 35 36 37 38 39 39 40 41 41 42 43 43 44 44 45 45 46 46 47 48 49 50 51 51 52 52 53 54 54 54 54 54 54 54 54 55 55 56 57 59 62 63 64 64 64 64 64 64 65 65 65 66 66 66
17 17 16 15 14 13 13 13 14 15 17 17 18 19 19 21 22 23 25 26 25 25 24 24 24 24 24 25 28 31 33 34 35 35 36 37 38 39 40 40 41 42 43 44 44 44 45 45 46 46 47 48 49 49 50 51 52 52 53 53 54 54 54 54 54 54 54 54 55 55 56 57 60 62 63 63 63 63 63 64 64 65 65 66 66 66
18 18 17 16 15 14 13 13 14 15 16 17 17 18 19 20 22 24 26 26 25 24 23 24 24 25 23 25 27 30 31 33 34 35 35 36 37 39 39 41 42 43 44 44 44 44 45 45 46 46 47 48 48 49 50 51 51 52 53 53 54 54 54 54 53 53 53 54 54 55 55 57 58 60 62 62 62 62 63 63 64 65 65 65 66 66
19 18 17 15 14 13 13 13 14 16 17 17 17 17 18 19 21 23 26 26 25 24 23 23 23 24 23 25 27 28 28 29 30 31 34 35 36 38 40 41 42 43 43 44 44 44 45 45 46 46 47 48 48 49 50 50 51 52 53 53 54 54 54 53 53 53 53 53 54 54 54 55 57 58 60 61 62 62 62 62 63 64 65 65 66 66
19 17 15 14 13 13 12 13 15 17 19 19 18 17 17 18 20 22 24 23 23 23 22 22 22 23 22 24 25 26 27 27 28 29 31 33 35 38 40 41 41 42 42 43 43 44 45 45 46 46 47 48 48 49 50 50 51 52 53 53 53 53 53 53 53 53 53 53 54 54 54 55 56 57 59 60 61 62 62 62 63 64 64 65 65 66
17 15 13 13 13 13 12 12 15 17 21 20 20 19 19 18 19 20 21 20 21 21 21 21 22 22 21 23 24 26 26 28 30 31 33 35 37 39 39 39 39 39 40 41 42 43 44 45 46 47 48 48 49 50 50 50 51 52 52 53 53 53 53 53 53 53 53 53 53 54 54 55 55 57 58 59 60 61 61 62 62 63 63 64 64 65
16 14 13 13 13 13 14 14 16 18 20 19 18 17 17 17 18 19 18 18 19 20 20 21 21 21 21 23 24 25 26 27 30 33 35 36 37 37 37 36 37 37 39 40 41 42 44 44 45 46 47 48 49 50 50 51 51 51 52 53 53 53 53 53 53 53 53 53 53 54 54 55 55 56 57 59 60 60 61 61 61 62 62 63 63 64
15 14 14 13 13 13 13 15 16 17 18 17 16 15 14 17 18 20 18 18 19 19 20 20 21 21 23 23 24 25 26 28 31 34 35 35 34 34 33 34 35 36 37 39 40 41 42 43 44 45 46 48 48 50 51 51 51 51 52 52 53 53 53 53 53 53 53 53 53 53 54 55 55 56 57 58 59 60 60 60 61 61 62 62 62 63
15 14 13 13 13 12 12 13 14 15 16 15 14 14 14 15 17 19 20 19 20 20 20 19 20 21 23 24 25 26 27 30 32 33 32 30 30 30 31 31 32 34 35 36 38 39 41 42 44 44 45 47 48 49 50 51 51 51 51 52 52 53 52 52 52 53 53 53 53 53 54 55 55 56 57 57 58 59 60 60 60 60 61 61 62 62
14 13 13 12 12 12 12 12 13 14 15 15 14 14 14 15 16 17 19 19 19 19 19 19 19 20 22 24 26 27 29 31 31 30 28 28 29 30 30 30 31 32 34 35 35 37 39 40 42 43 44 46 48 49 50 51 51 51 51 52 52 52 52 52 52 53 53 53 53 54 54 54 55 56 57 57 58 59 59 59 60 60 60 61 61 62
14 13 13 12 12 12 12 13 15 16 16 16 15 15 15 15 16 17 18 18 19 19 18 18 19 20 21 23 25 27 30 29 28 26 26 27 28 28 29 30 30 31 32 34 35 36 39 39 41 42 44 45 47 48 49 50 51 51 52 52 52 52 52 52 52 53 53 53 53 54 54 54 55 55 56 57 58 58 59 59 59 60 60 61 61 62
14 14 14 13 13 13 13 15 16 17 17 16 15 15 14 15 16 17 18 18 18 18 17 17 18 18 20 21 24 27 28 27 26 25 25 26 26 28 29 30 30 30 32 33 34 36 38 39 40 41 43 45 47 48 49 50 51 52 52 52 52 52 52 52 52 53 53 53 53 54 54 54 55 55 56 57 58 58 58 59 59 59 60 60 61 61
16 15 15 14 14 14 16 17 18 17 17 16 15 14 14 15 17 18 18 18 18 17 17 17 17 17 18 19 21 24 26 25 25 24 24 24 26 27 30 30 30 30 31 32 34 35 37 38 39 41 43 44 46 48 49 51 51 52 52 52 52 52 52 52 53 53 53 53 53 53 54 54 54 55 56 57 57 58 58 58 58 59 59 60 60 61
17 17 16 16 16 17 18 18 18 17 17 15 14 14 15 17 17 18 18 18 17 17 17 17 17 17 17 18 20 21 24 24 24 24 23 24 25 27 30 30 30 30 31 33 34 35 37 39 40 41 43 44 46 48 49 50 51 52 52 52 52 52 52 52 53 53 53 53 53 53 53 54 54 55 56 57 57 57 58 58 58 58 59 59 60 60
17 17 17 17 18 18 18 17 16 15 14 14 14 14 15 16 17 17 17 17 17 17 17 17 18 18 18 18 19 21 23 24 24 23 23 24 24 26 28 29 30 30 32 34 35 37 38 40 41 43 44 44 46 47 48 49 51 52 52 52 52 52 52 53 53 53 53 53 53 53 53 53 54 55 56 57 57 57 57 57 58 58 58 59 59 60
17 17 17 17 17 17 16 16 16 16 16 16 16 16 16 16 16 17 17 17 17 18 18 18 18 19 19 19 20 21 23 24 24 24 24 24 24 26 28 29 30 31 32 34 35 37 39 40 42 43 44 44 45 46 48 49 50 51 52 52 52 52 52 53 53 53 53 53 53 53 53 53 54 55 56 57 57 57 57 57 57 58 58 59 59 60
17 17 17 17 17 17 17 17 17 18 19 19 18 17 16 16 16 16 17 17 18 18 19 19 19 20 20 21 21 22 24 24 24 24 24 24 24 26 27 30 31 32 34 35 35 36 38 39 40 42 43 44 45 46 47 48 50 51 52 52 52 52 52 53 53 53 53 53 53 53 53 53 54 55 56 57 57 57 57 57 57 58 58 59 59 59
17 17 18 19 20 20 20 20 21 21 21 21 19 17 16 16 16 17 17 18 18 19 19 20 21 22 22 22 22 23 25 26 26 25 25 24 24 25 27 30 33 34 33 33 34 35 36 38 39 41 42 43 44 45 47 48 49 51 52 52 52 52 52 53 53 53 53 53 53 53 53 53 54 55 56 57 57 57 57 57 57 58 58 58 59 59
19 20 21 22 22 21 21 20 20 20 21 20 19 18 18 18 18 18 19 19 20 20 21 22 23 23 22 22 22 23 25 27 27 27 26 24 24 25 28 31 31 31 30 31 32 34 36 37 39 39 41 43 44 45 46 48 49 51 52 52 52 52 53 53 53 53 53 53 53 53 53 54 54 55 56 57 57 57 57 57 57 58 58 58 59 59
23 23 23 22 21 21 21 20 20 20 20 20 20 20 21 21 21 21 21 22 23 24 25 24 23 22 21 21 21 23 25 27 28 27 26 25 25 26 28 29 30 30 30 31 33 34 35 36 37 39 40 42 43 44 46 48 49 51 52 52 52 52 53 53 53 53 53 53 53 53 53 54 55 55 56 57 57 57 57 57 57 58 58 58 58 59
22 21 21 22 24 25 25 25 25 25 25 26 25 25 26 26 26 26 26 26 26 25 24 22 21 20 20 21 21 21 22 26 27 27 26 25 25 25 26 29 30 30 30 31 33 34 35 35 36 37 39 40 43 44 46 48 50 51 52 52 52 53 53 53 53 53 53 53 53 53 53 54 55 56 56 56 57 57 57 57 57 57 58 58 58 58
23 24 25 26 27 29 29 29 30 30 29 28 27 27 27 27 27 26 25 24 23 23 22 21 20 19 19 19 19 20 21 25 27 27 26 25 24 25 26 29 30 30 30 31 32 33 33 34 35 36 38 40 43 45 48 49 51 52 52 52 53 53 52 52 52 53 53 53 53 53 54 54 55 56 56 56 56 57 57 57 57 57 57 57 57 58
26 26 26 27 27 27 27 27 27 28 28 28 27 26 26 26 25 23 22 21 22 22 21 20 19 18 18 18 18 19 20 23 25 26 26 25 25 25 27 29 30 30 30 30 31 31 32 33 34 35 37 40 43 46 49 51 52 52 52 52 53 53 52 52 52 52 53 53 53 53 54 55 55 56 56 56 56 56 56 57 57 57 57 57 58 58
24 24 24 25 25 25 26 26 26 27 27 27 28 27 26 25 24 22 21 21 22 21 20 19 18 17 17 17 17 18 20 21 23 25 26 27 26 26 27 28 29 30 29 29 30 31 32 33 35 36 38 41 45 48 51 52 52 52 52 52 53 52 52 52 52 52 52 53 53 53 54 55 55 56 56 56 56 56 56 56 56 57 57 57 59 60
22 22 23 23 24 24 24 24 25 25 26 26 26 26 26 25 23 22 21 22 21 21 19 18 18 17 17 17 17 18 19 21 23 26 29 28 27 26 26 27 28 29 29 28 29 30 31 33 36 39 41 44 48 51 52 52 52 52 52 52 52 52 52 52 52 52 52 53 53 54 54 55 55 56 56 56 56 56 56 56 56 57 57 59 60 60
20 20 20 21 21 22 22 21 22 23 25 25 26 26 25 24 23 22 21 21 21 20 19 18 18 18 17 17 17 17 18 21 26 30 30 27 25 24 26 26 27 28 29 28 27 27 28 32 37 41 45 48 50 52 53 53 53 53 53 53 53 52 52 52 52 52 52 53 53 54 55 55 55 55 55 56 56 56 56 56 57 58 59 60 60 60
17 18 18 18 19 19 19 20 21 21 23 23 24 24 23 22 21 21 21 21 21 20 19 18 18 18 18 17 17 16 17 20 26 30 28 26 24 24 25 26 26 28 29 28 26 25 26 30 35 41 47 50 51 52 53 53 53 53 53 53 53 53 52 52 52 52 52 53 53 54 54 55 55 55 55 55 56 56 56 56 57 58 60 60 60 60
17 17 17 17 17 18 18 19 19 19 20 20 21 21 21 21 21 21 21 21 21 21 20 19 18 18 18 17 17 17 17 19 23 26 27 25 25 25 26 26 26 27 29 29 28 26 25 27 31 35 40 46 50 52 52 52 52 52 52 52 52 52 52 52 52 52 52 53 53 54 54 55 55 55 55 55 55 56 56 56 57 58 60 60 60 60
17 17 17 17 17 18 18 18 18 18 18 18 19 19 20 21 21 21 21 21 21 21 21 20 19 18 18 18 18 17 18 19 22 25 26 26 25 25 26 26 26 27 28 29 29 28 27 28 29 31 33 40 46 51 52 52 52 52 52 52 52 52 52 53 53 53 53 53 53 54 54 54 54 54 55 55 55 55 56 56 57 58 59 60 60 60
17 17 17 17 17 17 17 17 17 17 18 18 19 19 20 20 21 21 22 22 22 22 21 21 20 19 18 18 18 18 18 20 22 25 27 27 26 26 26 26 26 26 26 27 28 28 29 29 29 30 31 36 44 49 52 52 52 52 52 52 51 51 52 53 53 53 54 54 54 55 55 55 55 55 55 55 55 55 56 56 57 57 58 59 60 60
16 17 17 17 17 17 17 17 17 17 18 18 19 19 20 20 20 21 21 22 22 22 22 22 21 21 20 19 18 18 18 20 23 26 27 27 27 26 26 25 26 26 26 26 26 27 27 29 30 30 30 33 40 48 51 52 52 52 51 51 51 51 51 52 53 53 54 55 55 56 56 56 56 56 56 55 55 55 56 56 57 57 57 58 59 59
15 16 16 16 17 17 17 17 17 17 18 18 18 19 20 20 20 21 21 21 22 22 23 23 23 22 22 21 20 20 20 21 23 26 27 28 27 26 25 25 26 26 26 26 26 26 26 28 29 30 29 31 37 45 50 51 51 50 50 50 50 50 51 52 53 54 54 55 55 56 57 57 57 57 57 56 55 55 55 56 56 56 57 57 57 58
15 15 16 16 16 17 17 17 17 17 17 18 18 19 20 20 21 21 21 22 22 23 23 24 24 24 25 24 23 22 22 23 24 26 27 28 27 27 26 25 26 26 26 26 26 26 27 27 28 29 29 31 38 44 49 49 49 49 48 49 49 49 50 51 53 54 55 55 55 56 56 57 57 57 57 55 55 55 55 55 56 56 56 56 57 57
15 15 16 16 17 17 17 17 17 17 18 18 19 20 20 21 21 21 22 22 23 23 23 23 23 24 26 26 26 26 26 26 26 27 28 28 28 27 26 26 26 27 27 27 27 27 27 27 27 27 28 34 40 46 49 48 48 48 48 48 48 48 49 50 52 53 55 55 56 56 56 56 57 57 57 56 56 57 57 57 57 56 56 56 56 56
15 15 16 17 17 17 17 17 18 18 19 19 20 21 21 21 22 23 23 23 23 23 23 24 24 24 25 26 27 28 28 28 28 28 28 28 28 28 27 27 27 27 28 28 29 28 28 28 27 27 27 32 39 45 48 48 47 47 47 47 48 48 48 49 51 53 55 56 56 55 56 57 57 57 57 57 57 57 57 58 57 57 57 58 57 57
15 15 16 17 17 17 18 18 19 19 19 20 21 21 21 21 22 22 23 23 23 24 24 25 25 26 26 27 28 28 29 29 30 30 30 30 30 29 29 28 28 28 29 30 30 30 29 29 29 29 29 30 34 40 47 47 47 47 47 47 46 46 47 48 50 53 55 56 56 56 56 57 57 57 57 57 57 57 58 58 58 58 58 59 58 58
16 16 16 17 17 18 19 19 20 20 20 20 20 20 21 21 21 21 22 22 23 24 25 25 26 26 27 27 28 29 30 30 30 31 31 31 31 31 31 30 30 30 30 30 30 30 30 30 30 31 31 30 31 36 44 46 47 47 47 46 45 45 46 48 49 52 55 56 56 56 56 56 56 56 56 57 57 58 58 58 59 59 59 59 59 59
17 17 16 17 17 18 18 19 20 20 21 20 20 20 20 21 21 21 21 22 22 23 24 25 25 25 26 27 28 30 30 31 31 32 32 32 32 32 31 31 31 31 31 31 31 32 32 32 32 32 32 32 32 35 42 45 47 46 46 45 45 45 46 48 49 52 55 56 56 56 56 56 56 56 56 57 57 58 58 59 58 58 59 59 59 59
17 17 17 17 17 18 19 20 20 20 20 19 19 20 20 21 21 22 22 22 22 23 24 24 24 25 25 25 26 28 30 30 31 32 32 32 32 32 32 32 32 32 32 32 32 32 33 34 34 33 34 33 34 36 43 44 45 45 45 45 45 44 44 46 48 52 55 56 56 56 56 56 56 57 57 57 57 58 58 58 57 57 58 59 59 59
17 17 17 17 17 18 19 18 18 18 18 19 19 20 20 21 22 22 23 22 23 23 23 24 24 24 24 25 25 26 28 30 30 31 32 33 33 33 33 32 33 33 33 33 33 33 34 35 35 35 36 35 36 39 44 44 43 43 44 44 44 44 43 44 46 49 53 55 56 56 57 56 56 57 57 57 57 57 58 58 58 59 58 59 59 59
17 17 17 17 17 17 17 17 18 18 18 18 19 19 20 21 21 22 22 22 22 22 23 23 24 23 23 24 24 25 26 28 29 30 31 33 34 35 34 33 33 33 33 34 34 34 35 35 35 36 37 38 40 42 44 43 43 43 43 44 44 44 43 44 45 47 50 53 53 54 55 56 56 56 56 56 56 57 57 57 58 58 58 58 59 58
17 16 16 16 16 17 17 18 18 18 18 18 19 19 20 20 21 21 22 22 22 22 23 23 23 23 22 23 24 25 25 26 27 28 30 31 32 33 34 34 34 34 34 34 35 35 36 36 36 36 39 42 43 44 43 43 43 42 43 43 43 43 44 44 45 46 48 49 51 52 53 55 55 55 54 54 54 55 56 57 57 57 57 57 58 58
16 16 16 16 16 16 17 17 17 17 17 18 18 19 20 20 21 21 21 21 21 22 23 23 23 22 22 23 24 24 25 25 26 26 28 29 30 32 33 34 35 35 35 35 36 36 37 38 38 39 43 44 44 43 43 43 42 42 42 42 43 43 43 44 44 45 47 48 50 51 53 54 53 53 52 52 52 53 53 54 55 56 57 57 57 57
17 16 16 16 16 16 16 17 17 17 17 17 18 18 19 20 21 21 21 21 21 22 22 22 22 22 22 23 24 24 25 25 25 26 26 28 29 30 32 33 34 35 36 37 37 38 38 39 39 40 42 43 42 42 41 41 41 41 41 42 42 42 42 42 43 44 45 47 48 51 53 53 52 52 51 51 51 50 50 51 53 54 55 56 57 57
16 16 16 16 15 16 16 17 17 17 17 17 17 18 19 20 21 21 21 21 21 21 21 21 21 21 21 22 23 24 25 25 25 26 26 27 28 29 30 32 33 35 35 36 37 38 39 39 39 40 41 41 41 41 41 41 41 41 41 41 41 42 42 42 43 44 44 45 47 48 51 52 52 52 51 50 50 49 49 50 52 53 53 55 56 56
16 16 16 16 15 15 16 17 17 17 17 17 17 18 18 19 20 20 20 21 21 21 21 21 21 21 21 22 23 23 24 24 25 25 26 26 27 29 30 31 32 33 35 35 36 37 38 38 39 40 41 41 40 40 40 40 41 41 41 41 41 42 42 42 43 44 44 45 46 47 48 50 51 52 51 50 49 48 49 49 50 51 51 53 54 55
16 16 16 15 15 15 16 17 17 17 17 18 18 18 18 18 19 19 19 20 20 20 21 21 21 21 22 22 23 23 24 24 24 25 26 26 27 28 29 30 31 32 33 35 35 35 36 37 37 38 39 40 40 40 39 39 40 40 40 40 41 42 42 42 43 43 44 44 45 46 47 48 49 50 50 49 49 48 48 48 49 50 51 53 54 54